Time,TemperatureF,DewpointF,PressureIn,WindDirection,WindDirectionDegrees,WindSpeedMPH,WindSpeedGustMPH,Humidity,HourlyPrecipIn,Conditions,Clouds,dailyrainin,SolarRadiationWatts/m^2,SoftwareType,DateUTC
2013-09-27 00:01:00,65.1,61.0,30.00,East,90,0.0,0.0,87,0.00,,,0.00,637,,2013-09-26 22:01:00,
2013-09-27 00:06:00,64.9,60.8,30.00,East,90,0.0,0.0,87,0.00,,,0.00,637,,2013-09-26 22:06:00,
2013-09-27 00:11:00,64.9,60.6,30.00,East,90,0.0,0.0,86,0.00,,,0.00,637,,2013-09-26 22:11:00,
2013-09-27 00:16:00,64.8,60.4,30.00,East,90,0.0,0.0,86,0.00,,,0.00,637,,2013-09-26 22:16:00,
2013-09-27 00:21:00,64.8,60.4,30.00,East,90,0.0,0.0,86,0.00,,,0.00,637,,2013-09-26 22:21:00,
2013-09-27 00:26:00,64.8,60.4,30.00,East,90,0.0,0.0,86,0.00,,,0.00,637,,2013-09-26 22:26:00,
2013-09-27 00:31:00,64.8,60.4,30.00,East,90,0.0,0.0,86,0.00,,,0.00,637,,2013-09-26 22:31:00,
2013-09-27 08:55:00,67.3,64.4,29.97,ESE,112,0.0,0.0,91,-99.99,,,0.00,637,,2013-09-27 06:55:00,
2013-09-27 09:00:00,67.5,64.6,29.97,SE,135,0.0,0.0,91,-99.99,,,0.00,637,,2013-09-27 07:00:00,
2013-09-27 09:05:00,67.6,64.6,30.00,SSW,202,0.0,0.0,90,0.00,,,0.00,637,,2013-09-27 07:05:00,
2013-09-27 09:10:00,67.8,64.8,30.00,SSW,202,0.0,0.0,90,0.00,,,0.00,637,,2013-09-27 07:10:00,
2013-09-27 09:15:00,68.0,64.9,30.00,SW,225,0.0,0.0,90,0.00,,,0.00,637,,2013-09-27 07:15:00,
2013-09-27 09:20:00,68.4,64.9,30.00,SSW,202,0.0,0.0,89,0.00,,,0.00,637,,2013-09-27 07:20:00,
2013-09-27 09:25:00,68.5,65.1,30.00,WSW,247,0.0,0.0,89,0.00,,,0.00,637,,2013-09-27 07:25:00,
2013-09-27 09:30:00,68.7,65.3,30.00,West,270,0.0,0.0,89,0.00,,,0.00,637,,2013-09-27 07:30:00,
2013-09-27 09:35:00,69.1,65.3,30.00,West,270,0.0,0.0,88,0.00,,,0.00,637,,2013-09-27 07:35:00,
2013-09-27 09:40:00,69.4,65.7,30.00,South,180,0.0,0.0,88,0.00,,,0.00,637,,2013-09-27 07:40:00,
2013-09-27 09:45:00,69.6,65.5,30.00,West,270,0.0,0.0,87,0.00,,,0.00,637,,2013-09-27 07:45:00,
2013-09-27 09:50:00,70.0,65.8,30.00,South,180,0.4,1.7,87,0.00,,,0.00,637,,2013-09-27 07:50:00,
2013-09-27 09:55:00,70.2,65.3,30.00,SW,225,0.4,2.2,85,0.00,,,0.00,637,,2013-09-27 07:55:00,
2013-09-27 10:00:00,70.5,65.3,30.00,SW,225,0.4,1.3,84,0.00,,,0.00,637,,2013-09-27 08:00:00,
2013-09-27 10:05:00,70.7,65.1,30.00,SW,225,0.4,0.0,83,0.00,,,0.00,637,,2013-09-27 08:05:00,
2013-09-27 10:10:00,70.9,64.9,30.00,SSW,202,0.8,2.2,82,0.00,,,0.00,637,,2013-09-27 08:10:00,
2013-09-27 10:15:00,71.1,65.1,30.00,SSW,202,0.8,0.8,82,0.00,,,0.00,637,,2013-09-27 08:15:00,
2013-09-27 10:20:00,71.4,65.1,30.00,SSW,202,0.4,0.4,81,0.00,,,0.00,637,,2013-09-27 08:20:00,
2013-09-27 10:25:00,71.8,65.1,30.03,SSW,202,0.4,0.0,80,0.00,,,0.00,637,,2013-09-27 08:25:00,
2013-09-27 10:30:00,71.6,64.2,30.03,WSW,247,3.1,3.1,78,0.00,,,0.00,637,,2013-09-27 08:30:00,
2013-09-27 10:35:00,71.4,64.0,30.00,SW,225,1.3,1.3,78,0.00,,,0.00,637,,2013-09-27 08:35:00,
2013-09-27 10:40:00,70.9,63.1,30.00,West,270,2.6,2.6,77,0.00,,,0.00,637,,2013-09-27 08:40:00,
2013-09-27 10:45:00,71.1,63.7,30.00,SW,225,1.3,2.6,78,0.00,,,0.00,637,,2013-09-27 08:45:00,
2013-09-27 10:50:00,71.4,64.0,30.00,WSW,247,1.7,3.5,78,0.00,,,0.00,637,,2013-09-27 08:50:00,
2013-09-27 10:55:00,71.6,63.9,30.03,SSW,202,0.4,1.3,77,0.00,,,0.00,637,,2013-09-27 08:55:00,
2013-09-27 11:00:00,72.1,64.4,30.03,SSW,202,0.8,1.3,77,0.00,,,0.00,637,,2013-09-27 09:00:00,
2013-09-27 11:05:00,71.8,63.0,30.00,SSE,157,1.7,1.7,74,0.00,,,0.00,637,,2013-09-27 09:05:00,
2013-09-27 11:10:00,72.5,63.7,30.00,WSW,247,1.3,1.3,74,0.00,,,0.00,637,,2013-09-27 09:10:00,
2013-09-27 11:15:00,72.9,63.1,30.00,SW,225,0.8,1.7,72,0.00,,,0.00,637,,2013-09-27 09:15:00,
2013-09-27 11:20:00,73.2,63.5,30.00,SW,225,0.8,1.7,72,0.00,,,0.00,637,,2013-09-27 09:20:00,
2013-09-27 11:26:00,73.6,63.1,30.00,WSW,247,0.8,2.2,70,0.00,,,0.00,637,,2013-09-27 09:26:00,
2013-09-27 11:35:00,73.9,63.5,30.00,SSE,157,0.8,1.3,70,0.00,,,0.00,637,,2013-09-27 09:35:00,
2013-09-27 11:40:00,74.1,62.4,30.00,West,270,2.6,3.5,67,0.00,,,0.00,637,,2013-09-27 09:40:00,
2013-09-27 11:45:00,74.1,61.9,30.00,WSW,247,2.6,3.5,66,0.00,,,0.00,637,,2013-09-27 09:45:00,
2013-09-27 11:50:00,74.1,61.9,30.00,WSW,247,1.7,2.6,66,0.00,,,0.00,637,,2013-09-27 09:50:00,
2013-09-27 11:55:00,74.5,62.8,30.03,SSW,202,1.3,2.6,67,0.00,,,0.00,637,,2013-09-27 09:55:00,
2013-09-27 12:00:00,74.7,62.4,30.03,WSW,247,1.7,1.7,66,0.00,,,0.00,637,,2013-09-27 10:00:00,
2013-09-27 12:05:00,75.0,62.8,30.03,SW,225,1.3,1.7,66,0.00,,,0.00,637,,2013-09-27 10:05:00,
2013-09-27 12:10:00,75.6,63.0,30.03,West,270,0.4,0.0,65,0.00,,,0.00,637,,2013-09-27 10:10:00,
2013-09-27 12:15:00,76.1,63.3,30.00,South,180,0.8,1.3,65,0.00,,,0.00,637,,2013-09-27 10:15:00,
2013-09-27 12:20:00,76.6,63.5,30.00,SW,225,0.8,1.7,64,0.00,,,0.00,637,,2013-09-27 10:20:00,
2013-09-27 12:25:00,77.4,63.7,30.00,WSW,247,0.4,1.3,63,0.00,,,0.00,637,,2013-09-27 10:25:00,
2013-09-27 12:31:00,77.5,63.3,30.00,SE,135,0.4,1.3,62,0.00,,,0.00,637,,2013-09-27 10:31:00,
2013-09-27 12:36:00,77.0,62.4,30.00,South,180,1.3,2.6,61,0.00,,,0.00,637,,2013-09-27 10:36:00,
2013-09-27 12:41:00,77.4,63.1,30.00,SE,135,0.8,1.3,62,0.00,,,0.00,637,,2013-09-27 10:41:00,
2013-09-27 12:46:00,77.9,63.3,29.97,East,90,0.4,0.4,61,0.00,,,0.00,637,,2013-09-27 10:46:00,
2013-09-27 12:51:00,77.7,62.6,29.97,South,180,1.7,3.1,60,0.00,,,0.00,637,,2013-09-27 10:51:00,
2013-09-27 12:56:00,78.3,63.1,30.00,SSW,202,0.4,0.4,60,0.00,,,0.00,637,,2013-09-27 10:56:00,
2013-09-27 13:01:00,78.4,62.4,30.00,SSE,157,1.3,0.0,58,0.00,,,0.00,637,,2013-09-27 11:01:00,
2013-09-27 13:06:00,78.4,61.9,29.97,SSE,157,1.7,1.7,57,0.00,,,0.00,637,,2013-09-27 11:06:00,
2013-09-27 13:11:00,78.8,61.7,29.97,South,180,1.3,4.9,56,0.00,,,0.00,637,,2013-09-27 11:11:00,
2013-09-27 13:16:00,78.1,60.4,30.00,SE,135,2.2,3.1,55,0.00,,,0.00,637,,2013-09-27 11:16:00,
2013-09-27 13:21:00,77.9,60.3,30.00,South,180,0.4,1.7,55,0.00,,,0.00,637,,2013-09-27 11:21:00,
2013-09-27 13:26:00,78.4,60.8,29.97,SSE,157,0.8,1.7,55,0.00,,,0.00,637,,2013-09-27 11:26:00,
2013-09-27 13:31:00,79.0,61.3,29.97,South,180,1.3,3.1,55,0.00,,,0.00,637,,2013-09-27 11:31:00,
2013-09-27 13:36:00,79.5,61.3,30.00,South,180,1.3,1.7,54,0.00,,,0.00,637,,2013-09-27 11:36:00,
2013-09-27 13:41:00,79.5,60.3,30.00,West,270,2.6,3.1,52,0.00,,,0.00,637,,2013-09-27 11:41:00,
2013-09-27 13:46:00,79.3,60.1,29.97,WNW,292,0.4,0.0,52,0.00,,,0.00,637,,2013-09-27 11:46:00,
2013-09-27 13:51:00,79.7,61.0,29.97,WSW,247,0.8,0.8,53,0.00,,,0.00,637,,2013-09-27 11:51:00,
2013-09-27 13:56:00,79.9,61.2,29.97,SW,225,1.7,1.7,53,0.00,,,0.00,637,,2013-09-27 11:56:00,
2013-09-27 14:01:00,79.5,60.3,29.97,WSW,247,2.2,4.0,52,0.00,,,0.00,637,,2013-09-27 12:01:00,
2013-09-27 14:06:00,79.7,61.5,29.97,SSW,202,0.8,3.1,54,0.00,,,0.00,637,,2013-09-27 12:06:00,
2013-09-27 14:11:00,79.9,60.6,29.97,SW,225,1.7,5.8,52,0.00,,,0.00,637,,2013-09-27 12:11:00,
2013-09-27 14:16:00,79.3,60.6,30.00,SSW,202,2.6,4.4,53,0.00,,,0.00,637,,2013-09-27 12:16:00,
2013-09-27 14:21:00,79.0,60.8,30.00,South,180,1.7,2.6,54,0.00,,,0.00,637,,2013-09-27 12:21:00,
2013-09-27 14:26:00,79.9,61.7,29.97,WSW,247,2.2,5.3,54,0.00,,,0.00,637,,2013-09-27 12:26:00,
2013-09-27 14:31:00,79.5,60.8,29.97,West,270,3.1,3.1,53,0.00,,,0.00,637,,2013-09-27 12:31:00,
2013-09-27 14:36:00,78.8,60.1,29.97,West,270,3.1,4.9,53,0.00,,,0.00,637,,2013-09-27 12:36:00,
2013-09-27 14:41:00,78.6,60.4,29.97,WSW,247,0.8,3.1,54,0.00,,,0.00,637,,2013-09-27 12:41:00,
2013-09-27 14:46:00,79.2,61.5,29.97,SSW,202,1.7,1.7,55,0.00,,,0.00,637,,2013-09-27 12:46:00,
2013-09-27 14:51:00,79.0,60.3,29.97,South,180,3.5,6.2,53,0.00,,,0.00,637,,2013-09-27 12:51:00,
2013-09-27 14:56:00,79.0,61.3,29.97,SSW,202,1.3,3.1,55,0.00,,,0.00,637,,2013-09-27 12:56:00,
2013-09-27 15:01:00,79.2,61.5,29.97,SW,225,3.1,3.5,55,0.00,,,0.00,637,,2013-09-27 13:01:00,
2013-09-27 15:06:00,79.0,60.8,29.97,SSW,202,3.1,5.8,54,0.00,,,0.00,637,,2013-09-27 13:06:00,
2013-09-27 15:11:00,79.3,61.7,29.97,South,180,1.7,3.5,55,0.00,,,0.00,637,,2013-09-27 13:11:00,
2013-09-27 15:16:00,79.3,61.2,29.97,SSW,202,1.7,4.4,54,0.00,,,0.00,637,,2013-09-27 13:16:00,
2013-09-27 15:21:00,78.8,60.6,29.97,South,180,3.5,4.4,54,0.00,,,0.00,637,,2013-09-27 13:21:00,
2013-09-27 15:26:00,78.3,60.6,29.97,South,180,3.1,4.9,55,0.00,,,0.00,637,,2013-09-27 13:26:00,
2013-09-27 15:31:00,78.1,61.0,29.97,South,180,3.1,6.7,56,0.00,,,0.00,637,,2013-09-27 13:31:00,
2013-09-27 15:36:00,78.1,61.0,29.97,South,180,2.6,2.6,56,0.00,,,0.00,637,,2013-09-27 13:36:00,
2013-09-27 15:41:00,77.9,60.8,29.97,South,180,4.0,5.8,56,0.00,,,0.00,637,,2013-09-27 13:41:00,
2013-09-27 15:46:00,77.5,60.4,29.94,South,180,1.7,2.2,56,0.00,,,0.00,637,,2013-09-27 13:46:00,
2013-09-27 15:51:00,77.4,59.9,29.94,South,180,2.6,5.3,55,0.00,,,0.00,637,,2013-09-27 13:51:00,
2013-09-27 15:56:00,77.5,60.4,29.97,SW,225,2.2,4.0,56,0.00,,,0.00,637,,2013-09-27 13:56:00,
2013-09-27 16:01:00,77.9,60.8,29.97,SSW,202,2.2,5.3,56,0.00,,,0.00,637,,2013-09-27 14:01:00,
2013-09-27 16:06:00,77.4,59.9,29.94,SSW,202,3.5,4.9,55,0.00,,,0.00,637,,2013-09-27 14:06:00,
2013-09-27 16:11:00,77.4,59.9,29.94,South,180,2.6,4.0,55,0.00,,,0.00,637,,2013-09-27 14:11:00,
2013-09-27 16:16:00,77.5,60.4,29.97,South,180,1.3,4.0,56,0.00,,,0.00,637,,2013-09-27 14:16:00,
2013-09-27 16:21:00,77.7,60.6,29.97,SSW,202,1.7,1.7,56,0.00,,,0.00,637,,2013-09-27 14:21:00,
2013-09-27 16:26:00,77.7,60.3,29.97,South,180,1.3,4.0,55,0.00,,,0.00,637,,2013-09-27 14:26:00,
2013-09-27 16:31:00,77.5,60.1,29.97,SW,225,2.2,2.2,55,0.00,,,0.00,637,,2013-09-27 14:31:00,
2013-09-27 16:36:00,78.1,60.4,29.94,SW,225,1.3,4.9,55,0.00,,,0.00,637,,2013-09-27 14:36:00,
2013-09-27 16:41:00,77.9,59.9,29.94,SSW,202,3.1,4.0,54,0.00,,,0.00,637,,2013-09-27 14:41:00,
2013-09-27 16:46:00,77.5,59.0,29.97,WSW,247,2.2,3.5,53,0.00,,,0.00,637,,2013-09-27 14:46:00,
2013-09-27 16:51:00,77.2,58.6,29.97,SSW,202,2.2,4.0,53,0.00,,,0.00,637,,2013-09-27 14:51:00,
2013-09-27 16:56:00,77.2,59.2,29.94,SSW,202,2.2,5.8,54,0.00,,,0.00,637,,2013-09-27 14:56:00,
2013-09-27 17:01:00,77.2,59.2,29.94,SSW,202,1.7,4.9,54,0.00,,,0.00,637,,2013-09-27 15:01:00,
2013-09-27 17:06:00,76.6,58.1,29.94,SSW,202,2.6,2.6,53,0.00,,,0.00,637,,2013-09-27 15:06:00,
2013-09-27 17:11:00,76.1,58.1,29.94,SSW,202,3.5,4.0,54,0.00,,,0.00,637,,2013-09-27 15:11:00,
2013-09-27 17:16:00,76.3,58.8,29.97,South,180,2.6,4.0,55,0.00,,,0.00,637,,2013-09-27 15:16:00,
2013-09-27 17:21:00,76.3,58.8,29.97,WSW,247,2.2,3.1,55,0.00,,,0.00,637,,2013-09-27 15:21:00,
2013-09-27 17:26:00,76.3,58.8,29.94,South,180,1.3,1.3,55,0.00,,,0.00,637,,2013-09-27 15:26:00,
2013-09-27 17:31:00,76.5,59.0,29.94,South,180,1.3,1.3,55,0.00,,,0.00,637,,2013-09-27 15:31:00,
2013-09-27 17:36:00,75.9,57.9,29.97,South,180,1.7,3.5,54,0.00,,,0.00,637,,2013-09-27 15:36:00,
2013-09-27 17:46:00,75.6,58.1,29.97,South,180,1.7,4.0,55,0.00,,,0.00,637,,2013-09-27 15:46:00,
2013-09-27 17:51:00,75.0,58.1,29.97,South,180,1.7,1.7,56,0.00,,,0.00,637,,2013-09-27 15:51:00,
2013-09-27 17:56:00,75.0,58.6,29.97,WSW,247,1.3,3.1,57,0.00,,,0.00,637,,2013-09-27 15:56:00,
2013-09-27 18:01:00,74.8,58.5,29.97,SW,225,1.7,1.7,57,0.00,,,0.00,637,,2013-09-27 16:01:00,
2013-09-27 18:06:00,74.8,58.5,29.97,South,180,1.7,1.7,57,0.00,,,0.00,637,,2013-09-27 16:06:00,
2013-09-27 18:11:00,74.5,58.6,29.97,South,180,0.8,1.3,58,0.00,,,0.00,637,,2013-09-27 16:11:00,
2013-09-27 18:16:00,74.5,58.6,29.97,SW,225,0.8,1.7,58,0.00,,,0.00,637,,2013-09-27 16:16:00,
2013-09-27 18:21:00,73.9,58.6,29.97,South,180,1.3,2.6,59,0.00,,,0.00,637,,2013-09-27 16:21:00,
2013-09-27 18:26:00,73.6,58.8,29.94,South,180,0.8,0.8,60,0.00,,,0.00,637,,2013-09-27 16:26:00,
2013-09-27 18:31:00,73.2,58.5,29.94,South,180,1.3,2.6,60,0.00,,,0.00,637,,2013-09-27 16:31:00,
2013-09-27 18:36:00,72.7,58.3,29.97,South,180,1.3,1.7,61,0.00,,,0.00,637,,2013-09-27 16:36:00,
2013-09-27 18:41:00,72.5,58.6,29.97,South,180,0.8,1.7,62,0.00,,,0.00,637,,2013-09-27 16:41:00,
2013-09-27 18:46:00,72.1,58.3,29.97,South,180,1.3,2.2,62,0.00,,,0.00,637,,2013-09-27 16:46:00,
2013-09-27 18:51:00,71.8,58.5,29.97,SSW,202,0.8,0.8,63,0.00,,,0.00,637,,2013-09-27 16:51:00,
2013-09-27 18:56:00,71.4,58.5,29.97,South,180,0.4,1.7,64,0.00,,,0.00,637,,2013-09-27 16:56:00,
2013-09-27 19:01:00,71.1,58.1,29.97,South,180,0.0,0.0,64,0.00,,,0.00,637,,2013-09-27 17:01:00,
2013-09-27 19:06:00,70.7,58.3,29.94,SSW,202,0.4,1.3,65,0.00,,,0.00,637,,2013-09-27 17:06:00,
2013-09-27 19:11:00,70.3,58.3,29.94,South,180,0.4,1.3,66,0.00,,,0.00,637,,2013-09-27 17:11:00,
2013-09-27 19:16:00,70.2,58.6,29.97,South,180,0.0,0.0,67,0.00,,,0.00,637,,2013-09-27 17:16:00,
2013-09-27 19:21:00,70.0,58.5,29.97,South,180,0.0,0.0,67,0.00,,,0.00,637,,2013-09-27 17:21:00,
2013-09-27 19:26:00,69.6,58.5,29.94,South,180,0.0,0.0,68,0.00,,,0.00,637,,2013-09-27 17:26:00,
2013-09-27 19:31:00,69.3,58.6,29.94,SW,225,0.0,0.0,69,0.00,,,0.00,637,,2013-09-27 17:31:00,
2013-09-27 19:36:00,69.1,58.8,29.97,SSW,202,0.4,0.0,70,0.00,,,0.00,637,,2013-09-27 17:36:00,
2013-09-27 19:41:00,68.9,58.6,29.97,South,180,0.0,0.0,70,0.00,,,0.00,637,,2013-09-27 17:41:00,
2013-09-27 19:46:00,68.7,58.8,29.97,South,180,0.0,0.0,71,0.00,,,0.00,637,,2013-09-27 17:46:00,
2013-09-27 19:51:00,68.4,58.5,29.97,South,180,0.0,0.0,71,0.00,,,0.00,637,,2013-09-27 17:51:00,
2013-09-27 19:56:00,68.2,58.6,29.97,South,180,0.0,0.0,72,0.00,,,0.00,637,,2013-09-27 17:56:00,
2013-09-27 20:01:00,68.0,59.0,29.97,South,180,0.0,0.0,73,0.00,,,0.00,637,,2013-09-27 18:01:00,
2013-09-27 20:06:00,67.8,58.8,29.97,South,180,0.0,0.0,73,0.00,,,0.00,637,,2013-09-27 18:06:00,
2013-09-27 20:11:00,67.8,59.2,29.97,South,180,0.0,0.0,74,0.00,,,0.00,637,,2013-09-27 18:11:00,
2013-09-27 20:16:00,67.6,59.0,29.94,SSW,202,0.0,0.8,74,0.00,,,0.00,637,,2013-09-27 18:16:00,
2013-09-27 20:21:00,67.5,59.2,29.94,West,270,0.0,0.0,75,0.00,,,0.00,637,,2013-09-27 18:21:00,
2013-09-27 20:26:00,67.3,59.0,29.97,West,270,0.0,0.0,75,0.00,,,0.00,637,,2013-09-27 18:26:00,
2013-09-27 20:31:00,67.3,59.4,29.97,West,270,0.0,0.0,76,0.00,,,0.00,637,,2013-09-27 18:31:00,
2013-09-27 20:36:00,67.1,59.2,29.97,West,270,0.0,0.0,76,0.00,,,0.00,637,,2013-09-27 18:36:00,
2013-09-27 20:41:00,67.1,59.2,29.97,West,270,0.0,0.0,76,0.00,,,0.00,637,,2013-09-27 18:41:00,
2013-09-27 20:46:00,67.1,59.5,29.97,West,270,0.0,0.0,77,0.00,,,0.00,637,,2013-09-27 18:46:00,
2013-09-27 20:51:00,66.9,59.4,29.97,West,270,0.0,0.0,77,0.00,,,0.00,637,,2013-09-27 18:51:00,
2013-09-27 20:56:00,66.9,59.7,29.97,West,270,0.0,0.0,78,0.00,,,0.00,637,,2013-09-27 18:56:00,
2013-09-27 21:01:00,66.7,59.5,29.97,West,270,0.0,0.0,78,0.00,,,0.00,637,,2013-09-27 19:01:00,
2013-09-27 21:06:00,66.7,59.5,29.97,West,270,0.0,0.0,78,0.00,,,0.00,637,,2013-09-27 19:06:00,
2013-09-27 21:11:00,66.6,59.7,29.97,West,270,0.0,0.0,79,0.00,,,0.00,637,,2013-09-27 19:11:00,
2013-09-27 21:16:00,66.6,59.7,29.97,West,270,0.0,0.0,79,0.00,,,0.00,637,,2013-09-27 19:16:00,
2013-09-27 21:21:00,66.4,59.5,29.97,West,270,0.0,0.0,79,0.00,,,0.00,637,,2013-09-27 19:21:00,
2013-09-27 21:26:00,66.2,59.4,29.97,West,270,0.0,0.0,79,0.00,,,0.00,637,,2013-09-27 19:26:00,
2013-09-27 21:31:00,66.2,59.4,29.97,West,270,0.0,0.0,79,0.00,,,0.00,637,,2013-09-27 19:31:00,
2013-09-27 21:36:00,66.2,59.4,29.97,West,270,0.0,0.0,79,0.00,,,0.00,637,,2013-09-27 19:36:00,
2013-09-27 21:41:00,66.2,59.4,29.97,WSW,247,0.0,0.0,79,0.00,,,0.00,637,,2013-09-27 19:41:00,
2013-09-27 21:46:00,66.2,59.4,30.00,East,90,0.0,0.0,79,0.00,,,0.00,637,,2013-09-27 19:46:00,
2013-09-27 21:51:00,66.0,59.2,30.00,East,90,0.0,0.0,79,0.00,,,0.00,637,,2013-09-27 19:51:00,
2013-09-27 21:56:00,66.0,59.5,30.00,East,90,0.0,0.0,80,0.00,,,0.00,637,,2013-09-27 19:56:00,
2013-09-27 22:01:00,66.0,59.5,30.00,East,90,0.0,0.0,80,0.00,,,0.00,637,,2013-09-27 20:01:00,
2013-09-27 22:06:00,65.8,59.4,29.97,NNE,22,0.4,1.3,80,0.00,,,0.00,637,,2013-09-27 20:06:00,
2013-09-27 22:11:00,65.8,59.4,29.97,North,0,0.0,0.0,80,0.00,,,0.00,637,,2013-09-27 20:11:00,
2013-09-27 22:16:00,65.8,59.4,30.00,North,0,0.0,0.0,80,0.00,,,0.00,637,,2013-09-27 20:16:00,
2013-09-27 22:21:00,65.8,59.7,30.00,North,0,0.0,0.0,81,0.00,,,0.00,637,,2013-09-27 20:21:00,
2013-09-27 22:26:00,65.7,59.2,29.97,North,0,0.0,0.4,80,0.00,,,0.00,637,,2013-09-27 20:26:00,
2013-09-27 22:31:00,65.5,59.4,29.97,East,90,0.0,0.4,81,0.00,,,0.00,637,,2013-09-27 20:31:00,
2013-09-27 22:36:00,65.3,58.8,29.97,East,90,0.0,0.8,80,0.00,,,0.00,637,,2013-09-27 20:36:00,
2013-09-27 22:41:00,65.3,59.2,29.97,East,90,0.0,0.0,81,0.00,,,0.00,637,,2013-09-27 20:41:00,
2013-09-27 22:46:00,65.3,59.2,29.97,East,90,0.0,0.8,81,0.00,,,0.00,637,,2013-09-27 20:46:00,
2013-09-27 22:51:00,65.3,59.2,29.97,East,90,0.4,2.6,81,0.00,,,0.00,637,,2013-09-27 20:51:00,
2013-09-27 22:56:00,65.3,59.2,29.97,East,90,0.4,2.6,81,0.00,,,0.00,637,,2013-09-27 20:56:00,
2013-09-27 23:01:00,65.3,59.5,29.97,NE,45,0.0,0.0,82,0.00,,,0.00,637,,2013-09-27 21:01:00,
2013-09-27 23:06:00,65.3,59.5,29.97,NE,45,0.0,0.0,82,0.00,,,0.00,637,,2013-09-27 21:06:00,
2013-09-27 23:11:00,65.3,59.2,29.97,NNE,22,0.0,0.0,81,0.00,,,0.00,637,,2013-09-27 21:11:00,
2013-09-27 23:16:00,65.3,59.2,29.97,North,0,0.0,0.0,81,0.00,,,0.00,637,,2013-09-27 21:16:00,
2013-09-27 23:21:00,65.3,59.2,29.97,North,0,0.0,0.0,81,0.00,,,0.00,637,,2013-09-27 21:21:00,
2013-09-27 23:26:00,65.1,59.0,30.00,ENE,67,0.4,0.4,81,0.00,,,0.00,637,,2013-09-27 21:26:00,
2013-09-27 23:31:00,65.1,58.6,30.00,NE,45,0.0,0.0,80,0.00,,,0.00,637,,2013-09-27 21:31:00,
2013-09-27 23:36:00,64.9,58.5,29.97,NE,45,0.0,0.0,80,0.00,,,0.00,637,,2013-09-27 21:36:00,
2013-09-27 23:41:00,64.9,58.5,29.97,NE,45,0.4,0.0,80,0.00,,,0.00,637,,2013-09-27 21:41:00,
2013-09-27 23:46:00,64.9,58.5,29.97,NE,45,0.0,0.0,80,0.00,,,0.00,637,,2013-09-27 21:46:00,
2013-09-27 23:51:00,65.1,58.6,29.97,East,90,0.0,0.4,80,0.00,,,0.00,637,,2013-09-27 21:51:00,
2013-09-27 23:56:00,65.1,58.6,29.97,East,90,0.0,0.0,80,0.00,,,0.00,637,,2013-09-27 21:56:00,